Regional Weather Roundup
Issued by NWS Sterling, VA

Home | Current Version | Previous Version | Graphics & Text | Print | Product List | Glossary On
Versions: 1 2 3 4 5 6 7 8 9 10 11 12 13 14 15 16 17 18 19 20 21 22 23 24 25 26 27 28 29 30 31 32 33 34 35 36 37 38 39 40 41 42 43 44 45 46 47 48 49 50
200
ASUS41 KLWX 281210
RWRLWX

REGIONAL WEATHER ROUNDUP
NATIONAL WEATHER SERVICE BALTIMORE MD/WASHINGTON DC
800 AM EDT THU APR 28 2016

Note: "FAIR" indicates few or no clouds below 12,000 feet
with no significant weather and/or obstructions to visibility.
 TC=TEMPERATURE CELSIUS

 * =Non NWS site. Station does not report precipitation (e.g. rain,
    snow, etc.), thunder, or fog.

DCZ001-MDZ009-015-VAZ040>042-051-053>054-281300-
WASHINGTON METRO

CITY           SKY/WX    TMP DP  RH WIND       PRES   REMARKS
WASHINGTON NAT CLOUDY    55  51  86 NE12      29.98R
DULLES         LGT RAIN  53  50  89 E6        29.97R FOG
ANDREWS AFB    LGT RAIN  54  50  87 NE8       29.96R
FT BELVOIR     CLOUDY    54  51  89 VRB1      29.97R
QUANTICO       CLOUDY    55  52  89 E9        29.97R FOG
COLLEGE PARK*  CLOUDY    52  50  93 NE3       29.97F
LEESBURG*      CLOUDY    54  54 100 NE6       29.98S FOG
MANASSAS*      LGT RAIN  54  54 100 MISG      29.97R FOG
GAITHERSBURG*  CLOUDY    52  46  82 CALM      30.01S

$$

MDZ006>007-011-014-281300-
BALTIMORE METRO

CITY           SKY/WX    TMP DP  RH WIND       PRES   REMARKS
BWI AIRPORT    LGT RAIN  54  50  86 E7        29.99R FOG
MD SCIENCE CTR   N/A     55  48  77 MISG      30.01R
MARTIN STATE   CLOUDY    55  52  88 CALM      30.02R
ANNAPOLIS      CLOUDY    55  49  80 NE5       29.99R
FORT MEADE*    CLOUDY    52  50  93 CALM      30.01S

$$

MDZ012-015-019>023-281300-
MARYLAND EASTERN SHORE

CITY           SKY/WX    TMP DP  RH WIND       PRES   REMARKS
OCEAN CITY     RAIN      52  46  80 NE6       30.00R
SALISBURY      LGT RAIN  51  48  89 E5        29.99R
CAMBRIDGE*     CLOUDY    50  46  87 CALM      29.98R
EASTON*        CLOUDY   N/A N/A N/A NE5       30.03R

$$

MDZ017>025-281300-
SOUTHERN MARYLAND

CITY           SKY/WX    TMP DP  RH WIND       PRES   REMARKS
PATUXENT RIVER LGT RAIN  52  49  89 E7        29.97S FOG
ST INIGOES     LGT RAIN  53  51  93 NE8       29.96R FOG
LEONARDTOWN*   CLOUDY    52  50  93 E5        29.98S

$$

MDZ003>005-281300-
NORTH CENTRAL MARYLAND

CITY           SKY/WX    TMP DP  RH WIND       PRES   REMARKS
FREDERICK*     CLOUDY    54  52  94 NE5       30.02R FOG
HAGERSTOWN APT CLOUDY    52  49  89 E9        29.98R FOG
WESTMINSTER*   CLOUDY    52  48  87 CALM      30.00R FOG

$$

MDZ501>502-281300-
WESTERN MARYLAND

CITY           SKY/WX    TMP DP  RH WIND       PRES   REMARKS
OAKLAND*       FOG       48  48 100 SE13      29.92R VSB<1/4
CUMBERLAND*    CLOUDY    52  52 100 N3        29.99R

$$

VAZ025>031-281300-
SHENANDOAH VALLEY

CITY           SKY/WX    TMP DP  RH WIND       PRES   REMARKS
WINCHESTER*    CLOUDY    54  52  94 E8        29.96R FOG
FRONT ROYAL*   CLOUDY    54  52  94 NE6       29.93R
LURAY*         RAIN      54  54 100 NE7       29.93S
NEW MARKET*    CLOUDY    54  53  98 NE3       29.92S
STAUNTON*      CLOUDY    58  58 100 CALM      29.95R FOG
WAYNESBORO*    CLOUDY    57  56  96 MISG      29.94R

$$

WVZ021-048>050-054>055-281300-
EASTERN WEST VIRGINIA PANHANDLE

CITY           SKY/WX    TMP DP  RH WIND       PRES   REMARKS
MARTINSBURG    LGT RAIN  52  50  93 NE6       29.96F FOG
PETERSBURG*    CLOUDY    55  53  92 N6        29.94R

$$

VAZ036>039-050-281300-
CENTRAL FOOTHILLS

CITY           SKY/WX    TMP DP  RH WIND       PRES   REMARKS
CHARLOTTESVILL LGT RAIN  56  54  93 E3        29.95R VSB 1
CULPEPER*      HVY RAIN  54  54  98 CALM      29.98R
ORANGE*        HVY RAIN  54  54 100 NE8       29.96S
GORDONSVILLE*  CLOUDY    55  55 100 CALM      29.95S FOG
WARRENTON*     RAIN      54  49  83 NE3       29.96R

$$

VAZ055>057-281300-
NORTH AND CENTRAL PIEDMONT

CITY           SKY/WX    TMP DP  RH WIND       PRES   REMARKS
FREDERICKSBRG* CLOUDY    55  55 100 E3        29.95R FOG
STAFFORD*      CLOUDY    54  52  94 E7        30.00R FOG

$$

NCZ024-NYZ072-PAZ021-071-VAZ022-071-281300-
OTHER REGIONAL OBSERVATIONS

CITY           SKY/WX    TMP DP  RH WIND       PRES   REMARKS
NEW YORK CITY  CLOUDY    49  21  33 VRB5      30.08R
PHILADELPHIA   CLOUDY    54  36  50 NE9G20    30.02R
PITTSBURGH     LGT RAIN  52  38  58 NE6       29.87S
ROANOKE        CLOUDY    60  59  96 SE3       29.94S
RICHMOND       LGT RAIN  55  54  96 E6        29.96R
RALEIGH        CLOUDY    67  65  93 SE5       29.91R

$$

ANZ530>537-281300-
MARINE OBSERVATIONS

STATION/POSITION TIME  TEMP    WIND        PRES
                       AIR SEA DIR/SP/G
                 (UTC) (F)     (DEG/KT/KT) (MB)
THOMAS PT LIGHT  1200   54 58   60/  9/ 10 1016.9R
BALT KEY BRIDGE  1100   54      50/  6/  7 1015.1R
COVE POINT       1100   52      60/  6/  7 1015.4R
LEWISETTA        1100   54 62   70/ 10/ 13 1014.0R
SOLOMONS ISLAND  1100   53 60   60/  5/  7   N/A
PINEY POINT      1100           80/  5/  7   N/A

$$





USA.gov is the U.S. government's official web portal to all federal, state and local government web resources and services.